FW0503 Weather Reports


Display with metric or nautical units.
time (UTC)temp
F
wind
direction
speed
MPH
gust
MPH
rain 1hr
in
rain 24hr
in
rain mn
in
humidity
%
barometer
mb
20260906231510 86 340 2.0 8.0 0.00 0.00 0.00 27 1017.1
20260906231010 86 333 4.0 10.0 0.00 0.00 0.00 26 1017.2
20260906230511 85 352 3.0 10.0 0.00 0.00 0.00 26 1017.1
20260906230006 85 259 5.0 9.0 0.00 0.00 0.00 27 1017.1
20260906225501 86 319 4.0 10.0 0.00 0.00 0.00 27 1017.0
20260906225001 85 29 4.0 11.0 0.00 0.00 0.00 27 1017.0
20260906224501 85 292 4.0 11.0 0.00 0.00 0.00 27 1017.1
20260906224001 85 273 6.0 10.0 0.00 0.00 0.00 27 1017.1
20260906223733 85 299 5.0 14.0 0.00 0.00 0.00 27 1017.1
20260906222957 85 300 8.0 17.0 0.00 0.00 0.00 26 1017.1
20260906222451 86 316 6.0 17.0 0.00 0.00 0.00 26 1017.0
20260906221947 86 22 6.0 14.0 0.00 0.00 0.00 26 1017.0
20260906221447 87 316 9.0 14.0 0.00 0.00 0.00 25 1017.0
20260906220947 87 294 7.0 14.0 0.00 0.00 0.00 25 1016.9
20260906220448 88 316 8.0 14.0 0.00 0.00 0.00 24 1016.9
20260906215947 88 302 6.0 10.0 0.00 0.00 0.00 24 1016.9
20260906215447 88 305 5.0 12.0 0.00 0.00 0.00 23 1016.9
20260906214942 88 330 8.0 12.0 0.00 0.00 0.00 23 1016.9
20260906214442 89 250 4.0 12.0 0.00 0.00 0.00 23 1016.9
20260906213943 89 333 6.0 9.0 0.00 0.00 0.00 23 1017.0
20260906213443 90 3 5.0 8.0 0.00 0.00 0.00 22 1017.0
20260906212943 90 306 5.0 10.0 0.00 0.00 0.00 21 1017.0
20260906212444 89 1 7.0 11.0 0.00 0.00 0.00 22 1017.1
20260906211939 89 59 5.0 11.0 0.00 0.00 0.00 22 1017.1
20260906211433 89 286 4.0 9.0 0.00 0.00 0.00 22 1017.2
20260906210934 89 334 6.0 10.0 0.00 0.00 0.00 22 1017.2
20260906210655 89 349 6.0 10.0 0.00 0.00 0.00 21 1017.2
20260906205934 89 280 5.0 9.0 0.00 0.00 0.00 21 1017.2
20260906205434 89 291 5.0 10.0 0.00 0.00 0.00 20 1017.4
20260906204934 88 285 6.0 10.0 0.00 0.00 0.00 22 1017.4
20260906204430 88 297 5.0 10.0 0.00 0.00 0.00 21 1017.4
20260906204407 89 314 5.0 9.0 0.00 0.00 0.00 22 1017.5
20260906203425 88 53 5.0 11.0 0.00 0.00 0.00 24 1017.5
20260906202925 88 314 6.0 11.0 0.00 0.00 0.00 22 1017.6
20260906202426 88 275 4.0 7.0 0.00 0.00 0.00 24 1017.7
20260906201926 88 340 5.0 9.0 0.00 0.00 0.00 22 1017.7
20260906201421 88 328 4.0 10.0 0.00 0.00 0.00 22 1017.8
20260906200921 88 35 6.0 10.0 0.00 0.00 0.00 23 1017.9
20260906200421 88 337 6.0 11.0 0.00 0.00 0.00 22 1017.9
20260906195922 87 264 7.0 11.0 0.00 0.00 0.00 22 1017.9
20260906195421 87 292 4.0 8.0 0.00 0.00 0.00 22 1018.0
20260906194921 87 312 6.0 9.0 0.00 0.00 0.00 20 1018.2
20260906194417 88 304 5.0 9.0 0.00 0.00 0.00 20 1018.3
20260906193911 88 297 2.0 8.0 0.00 0.00 0.00 21 1018.2
20260906193412 88 288 4.0 8.0 0.00 0.00 0.00 21 1018.3
20260906192912 88 330 3.0 5.0 0.00 0.00 0.00 20 1018.3
20260906192632 87 293 2.0 9.0 0.00 0.00 0.00 20 1018.4
20260906192134 87 309 5.0 9.0 0.00 0.00 0.00 19 1018.6
20260906191413 88 330 4.0 9.0 0.00 0.00 0.00 20 1018.6
20260906190912 88 258 5.0 9.0 0.00 0.00 0.00 20 1018.7
20260906190636 87 313 4.0 8.0 0.00 0.00 0.00 20 1018.7
20260906185903 87 285 3.0 8.0 0.00 0.00 0.00 21 1018.9
20260906185404 87 318 3.0 6.0 0.00 0.00 0.00 22 1019.0
20260906184903 88 326 2.0 4.0 0.00 0.00 0.00 21 1019.1
20260906184626 88 48 2.0 4.0 0.00 0.00 0.00 22 1019.1
20260906184125 87 41 1.0 4.0 0.00 0.00 0.00 25 1019.2
20260906183359 87 283 0.0 4.0 0.00 0.00 0.00 25 1019.4
20260906182854 86 278 2.0 4.0 0.00 0.00 0.00 24 1019.4
20260906182338 86 313 1.0 5.0 0.00 0.00 0.00 24 1019.4
20260906182059 86 2 1.0 5.0 0.00 0.00 0.00 22 1019.5
20260906181339 86 291 2.0 4.0 0.00 0.00 0.00 22 1019.8
20260906180840 87 335 2.0 4.0 0.00 0.00 0.00 23 1019.8
20260906180339 88 32 2.0 4.0 0.00 0.00 0.00 24 1019.8
20260906175834 89 321 1.0 4.0 0.00 0.00 0.00 21 1019.9
20260906175555 89 66 1.0 3.0 0.00 0.00 0.00 21 1020.0
20260906175056 88 237 1.0 4.0 0.00 0.00 0.00 23 1020.1
20260906174335 86 70 0.0 5.0 0.00 0.00 0.00 24 1020.2
20260906173835 85 58 2.0 8.0 0.00 0.00 0.00 25 1020.3
20260906173335 85 58 2.0 8.0 0.00 0.00 0.00 25 1020.2
20260906172831 83 155 2.0 7.0 0.00 0.00 0.00 27 1020.3
20260906172331 83 105 3.0 7.0 0.00 0.00 0.00 27 1020.5
20260906172058 83 79 2.0 6.0 0.00 0.00 0.00 31 1020.5
20260906171344 82 121 3.0 6.0 0.00 0.00 0.00 28 1020.6
20260906170832 83 96 3.0 5.0 0.00 0.00 0.00 28 1020.7
20260906170332 82 87 1.0 5.0 0.00 0.00 0.00 27 1020.7
20260906165827 82 133 2.0 9.0 0.00 0.00 0.00 27 1020.8
20260906165326 82 111 4.0 9.0 0.00 0.00 0.00 26 1020.8
20260906164827 80 145 4.0 6.0 0.00 0.00 0.00 29 1020.8
20260906164327 79 106 3.0 7.0 0.00 0.00 0.00 29 1021.0
20260906163828 80 126 4.0 8.0 0.00 0.00 0.00 29 1020.9
20260906163327 80 122 3.0 8.0 0.00 0.00 0.00 29 1020.9
20260906163050 80 64 2.0 6.0 0.00 0.00 0.00 30 1021.0
20260906162322 79 66 3.0 5.0 0.00 0.00 0.00 30 1021.0
20260906162005 80 97 2.0 5.0 0.00 0.00 0.00 32 1021.0
20260906160813 78 90 3.0 6.0 0.00 0.00 0.00 32 1021.1
20260906160531 78 110 3.0 8.0 0.00 0.00 0.00 31 1021.1
20260906155813 78 114 2.0 8.0 0.00 0.00 0.00 31 1021.0
20260906155313 77 72 1.0 5.0 0.00 0.00 0.00 32 1021.0
20260906154821 77 100 3.0 6.0 0.00 0.00 0.00 31 1021.0
20260906154303 77 52 2.0 7.0 0.00 0.00 0.00 33 1021.1
20260906153804 76 33 3.0 8.0 0.00 0.00 0.00 32 1021.1
20260906153304 76 124 4.0 8.0 0.00 0.00 0.00 32 1021.1
20260906152804 76 120 4.0 6.0 0.00 0.00 0.00 32 1021.1
20260906152307 75 35 1.0 8.0 0.00 0.00 0.00 33 1021.1
20260906151817 74 71 4.0 8.0 0.00 0.00 0.00 35 1021.3
20260906151300 72 93 1.0 4.0 0.00 0.00 0.00 38 1021.3
20260906151017 71 58 2.0 6.0 0.00 0.00 0.00 39 1021.4
20260906150300 71 70 2.0 11.0 0.00 0.00 0.00 39 1021.4
20260906145800 72 111 4.0 11.0 0.00 0.00 0.00 39 1021.4
20260906145300 72 144 3.0 7.0 0.00 0.00 0.00 39 1021.4
20260906144800 73 117 3.0 6.0 0.00 0.00 0.00 38 1021.4
20260906144744 73 60 2.0 8.0 0.00 0.00 0.00 39 1021.4
20260906143756 72 96 3.0 8.0 0.00 0.00 0.00 38 1021.4
20260906143255 72 93 2.0 8.0 0.00 0.00 0.00 39 1021.5
20260906142756 71 129 4.0 8.0 0.00 0.00 0.00 38 1021.4
20260906142256 71 105 2.0 8.0 0.00 0.00 0.00 37 1021.5
20260906141810 70 108 4.0 7.0 0.00 0.00 0.00 38 1021.5
20260906141256 69 91 4.0 7.0 0.00 0.00 0.00 39 1021.5
20260906140756 68 121 2.0 7.0 0.00 0.00 0.00 42 1021.5
20260906140252 67 110 1.0 5.0 0.00 0.00 0.00 44 1021.4
20260906135747 66 110 1.0 4.0 0.00 0.00 0.00 45 1021.4
20260906135246 66 142 2.0 5.0 0.00 0.00 0.00 45 1021.3
20260906134747 66 91 2.0 8.0 0.00 0.00 0.00 45 1021.1
20260906134506 65 112 2.0 8.0 0.00 0.00 0.00 45 1021.0
20260906134232 65 100 2.0 6.0 0.00 0.00 0.00 46 1020.9
20260906133242 65 103 1.0 5.0 0.00 0.00 0.00 46 1021.0
20260906132742 65 100 2.0 4.0 0.00 0.00 0.00 45 1021.0
20260906132238 65 126 0.0 4.0 0.00 0.00 0.00 45 1021.0
20260906131957 65 117 0.0 4.0 0.00 0.00 0.00 45 1020.9
20260906131232 64 150 1.0 4.0 0.00 0.00 0.00 46 1020.8
20260906130733 64 114 1.0 2.0 0.00 0.00 0.00 48 1020.8
20260906130505 64 112 1.0 2.0 0.00 0.00 0.00 46 1020.7
20260906125733 64 115 1.0 3.0 0.00 0.00 0.00 46 1020.7
20260906125229 64 106 1.0 3.0 0.00 0.00 0.00 46 1020.7
20260906124723 64 103 0.0 4.0 0.00 0.00 0.00 46 1020.8
20260906124224 64 161 1.0 4.0 0.00 0.00 0.00 48 1020.7
20260906123724 63 115 1.0 3.0 0.00 0.00 0.00 49 1020.7
20260906123224 63 119 1.0 2.0 0.00 0.00 0.00 49 1020.6
20260906122725 63 86 0.0 1.0 0.00 0.00 0.00 50 1020.5
20260906122219 64 86 0.0 1.0 0.00 0.00 0.00 48 1020.6
20260906121715 64 85 0.0 1.0 0.00 0.00 0.00 48 1020.6
20260906121204 64 77 0.0 1.0 0.00 0.00 0.00 48 1020.5
20260906120705 64 98 0.0 1.0 0.00 0.00 0.00 46 1020.6
20260906120425 65 98 0.0 3.0 0.00 0.00 0.00 45 1020.7
20260906115925 65 98 0.0 3.0 0.00 0.00 0.00 45 1020.5
20260906115205 65 70 0.0 4.0 0.00 0.00 0.00 45 1020.5
20260906114701 64 98 1.0 4.0 0.00 0.00 0.00 46 1020.3
20260906114155 64 74 1.0 3.0 0.00 0.00 0.00 49 1020.1
20260906114138 63 60 1.0 2.0 0.00 0.00 0.00 50 1020.2
20260906113417 62 53 1.0 2.0 0.00 0.00 0.00 51 1020.2
20260906112931 62 65 0.0 1.0 0.00 0.00 0.00 53 1020.2
20260906112146 63 103 0.0 1.0 0.00 0.00 0.00 50 1020.5
20260906111641 63 103 0.0 1.0 0.00 0.00 0.00 49 1020.5
20260906111141 63 65 0.0 1.0 0.00 0.00 0.00 49 1020.2
20260906110641 64 65 0.0 2.0 0.00 0.00 0.00 48 1020.1
20260906110328 64 65 1.0 2.0 0.00 0.00 0.00 48 1020.1
20260906105145 64 115 0.0 4.0 0.00 0.00 0.00 48 1020.1
20260906104632 64 115 0.0 4.0 0.00 0.00 0.00 48 1020.0
20260906104132 64 62 1.0 3.0 0.00 0.00 0.00 49 1019.9
20260906103633 64 63 0.0 3.0 0.00 0.00 0.00 49 1019.9
20260906103127 63 61 1.0 3.0 0.00 0.00 0.00 50 1019.9
20260906102628 62 69 2.0 2.0 0.00 0.00 0.00 52 1019.8
20260906102122 61 62 0.0 2.0 0.00 0.00 0.00 54 1019.8
20260906101622 61 63 0.0 1.0 0.00 0.00 0.00 56 1019.9
20260906101118 60 63 0.0 1.0 0.00 0.00 0.00 57 1019.9
20260906100618 60 63 0.0 1.0 0.00 0.00 0.00 58 1019.9
20260906100119 61 63 0.0 1.0 0.00 0.00 0.00 55 1020.0
20260906095618 61 63 0.0 1.0 0.00 0.00 0.00 54 1019.9
20260906095119 62 63 0.0 1.0 0.00 0.00 0.00 53 1019.9
20260906094614 62 63 0.0 1.0 0.00 0.00 0.00 53 1019.8
20260906094109 62 63 0.0 3.0 0.00 0.00 0.00 52 1019.8
20260906093609 62 62 0.0 3.0 0.00 0.00 0.00 53 1019.7
20260906093332 61 51 0.0 1.0 0.00 0.00 0.00 55 1019.7
20260906092559 60 87 0.0 0.0 0.00 0.00 0.00 55 1019.5
20260906092054 60 87 0.0 1.0 0.00 0.00 0.00 56 1019.7
20260906091555 60 87 0.0 1.0 0.00 0.00 0.00 55 1019.8
20260906091050 60 86 0.0 0.0 0.00 0.00 0.00 56 1019.7
20260906090539 61 86 0.0 0.0 0.00 0.00 0.00 56 1019.9
20260906090040 61 86 0.0 0.0 0.00 0.00 0.00 54 1019.9
20260906085540 61 86 0.0 1.0 0.00 0.00 0.00 54 1019.8
20260906085040 61 86 0.0 1.0 0.00 0.00 0.00 53 1019.8
20260906084804 61 86 0.0 1.0 0.00 0.00 0.00 55 1019.8
20260906084040 62 86 0.0 1.0 0.00 0.00 0.00 56 1019.8
20260906083541 62 87 0.0 1.0 0.00 0.00 0.00 53 1019.8
20260906083036 61 87 0.0 1.0 0.00 0.00 0.00 54 1019.7
20260906082807 61 58 0.0 1.0 0.00 0.00 0.00 55 1019.7
20260906082208 60 57 0.0 1.0 0.00 0.00 0.00 58 1019.8
20260906081011 61 57 0.0 0.0 0.00 0.00 0.00 57 1019.9
20260906080512 61 57 0.0 0.0 0.00 0.00 0.00 55 1019.9
20260906080007 61 57 0.0 0.0 0.00 0.00 0.00 54 1019.8
20260906075722 61 57 0.0 0.0 0.00 0.00 0.00 53 1019.8
20260906074952 61 57 0.0 1.0 0.00 0.00 0.00 54 1019.7
20260906074441 61 57 0.0 1.0 0.00 0.00 0.00 54 1019.7
20260906074156 61 57 0.0 1.0 0.00 0.00 0.00 55 1019.7
20260906073437 61 57 0.0 0.0 0.00 0.00 0.00 55 1019.8
20260906072937 61 57 0.0 0.0 0.00 0.00 0.00 56 1019.7
20260906072437 61 58 0.0 0.0 0.00 0.00 0.00 57 1019.7
20260906071927 61 58 0.0 0.0 0.00 0.00 0.00 57 1019.7
20260906071417 62 58 0.0 0.0 0.00 0.00 0.00 57 1019.7
20260906070912 62 58 0.0 0.0 0.00 0.00 0.00 57 1019.7
20260906070352 62 58 0.0 0.0 0.00 0.00 0.00 55 1019.8
20260906065842 62 58 0.0 0.0 0.00 0.00 0.00 53 1019.9
20260906065342 63 58 0.0 0.0 0.00 0.00 0.00 52 1019.8
20260906064842 63 58 0.0 0.0 0.00 0.00 0.00 52 1019.8
20260906064337 64 58 0.0 0.0 0.00 0.00 0.00 51 1019.8
20260906063838 65 58 0.0 0.0 0.00 0.00 0.00 49 1019.8
20260906063338 65 58 0.0 1.0 0.00 0.00 0.00 48 1019.9
20260906062838 65 58 0.0 1.0 0.00 0.00 0.00 46 1019.8
20260906062338 66 58 0.0 1.0 0.00 0.00 0.00 48 1019.8
20260906061839 65 58 0.0 1.0 0.00 0.00 0.00 48 1019.7
20260906061334 65 58 0.0 1.0 0.00 0.00 0.00 50 1019.8
20260906060834 65 58 0.0 1.0 0.00 0.00 0.00 50 1019.7
20260906060341 66 58 0.0 2.0 0.00 0.00 0.00 49 1019.7
20260906055818 66 58 0.0 2.0 0.00 0.00 0.00 49 1019.7
20260906055539 65 60 1.0 2.0 0.00 0.00 0.00 51 1019.7
20260906054814 65 47 0.0 1.0 0.00 0.00 0.00 52 1019.7
20260906054314 66 15 0.0 1.0 0.00 0.00 0.00 51 1019.7
20260906054031 66 13 0.0 1.0 0.00 0.00 0.00 50 1019.7
20260906053310 66 13 1.0 2.0 0.00 0.00 0.00 53 1019.7
20260906052804 65 94 0.0 2.0 0.00 0.00 0.00 54 1019.7
20260906052318 65 177 0.0 0.0 0.00 0.00 0.00 56 1019.7
20260906051800 65 177 0.0 0.0 0.00 0.00 0.00 55 1019.7
20260906051300 66 177 0.0 0.0 0.00 0.00 0.00 54 1019.7
20260906051019 66 177 0.0 0.0 0.00 0.00 0.00 54 1019.7
20260906050240 66 177 0.0 0.0 0.00 0.00 0.00 52 1019.7
20260906045741 66 177 0.0 0.0 0.00 0.00 0.00 52 1019.7
20260906045235 66 177 0.0 0.0 0.00 0.00 0.00 51 1019.5
20260906044730 67 177 0.0 0.0 0.00 0.00 0.00 51 1019.7
20260906044230 67 177 0.0 1.0 0.00 0.00 0.00 51 1019.5
20260906043725 68 177 0.0 1.0 0.00 0.00 0.00 50 1019.4
20260906043216 67 254 0.0 0.0 0.00 0.00 0.00 48 1019.4
20260906043149 67 257 0.0 0.0 0.00 0.00 0.00 45 1019.3
20260906042201 67 257 0.0 0.0 0.00 0.00 0.00 49 1019.3
20260906041926 67 257 0.0 0.0 0.00 0.00 0.00 49 1019.3
20260906041201 68 257 0.0 0.0 0.00 0.00 0.00 50 1019.1
20260906040935 69 257 0.0 0.0 0.00 0.00 0.00 49 1019.1
20260906040431 69 257 0.0 0.0 0.00 0.00 0.00 46 1019.1
20260906035919 70 257 0.0 0.0 0.00 0.00 0.00 44 1019.1
20260906035148 71 257 0.0 0.0 0.00 0.00 0.00 42 1019.0
20260906034649 72 257 0.0 0.0 0.00 0.00 0.00 42 1019.0
20260906034421 72 257 0.0 0.0 0.00 0.00 0.00 40 1019.0
20260906033908 72 257 0.0 1.0 0.00 0.00 0.00 40 1019.0
20260906033139 73 257 0.0 1.0 0.00 0.00 0.00 38 1018.9
20260906032640 74 257 0.0 1.0 0.00 0.00 0.00 40 1018.9
20260906032135 74 257 0.0 1.0 0.00 0.00 0.00 35 1018.7
20260906031635 75 257 0.0 2.0 0.00 0.00 0.00 36 1018.6
20260906031135 75 257 1.0 2.0 0.00 0.00 0.00 36 1018.5
20260906030635 75 269 0.0 2.0 0.00 0.00 0.00 36 1018.4
20260906030130 76 4 0.0 1.0 0.00 0.00 0.00 35 1018.3
20260906025631 77 4 0.0 1.0 0.00 0.00 0.00 34 1018.4
20260906025130 77 4 0.0 1.0 0.00 0.00 0.00 33 1018.3
20260906024626 78 1 0.0 1.0 0.00 0.00 0.00 33 1018.2
20260906024126 79 1 0.0 1.0 0.00 0.00 0.00 32 1018.2
20260906023626 80 1 0.0 2.0 0.00 0.00 0.00 31 1018.2
20260906023126 80 311 1.0 3.0 0.00 0.00 0.00 31 1018.0
20260906022626 80 290 0.0 3.0 0.00 0.00 0.00 31 1017.9
20260906022127 81 308 1.0 2.0 0.00 0.00 0.00 31 1017.8
20260906021617 82 315 1.0 3.0 0.00 0.00 0.00 30 1017.8
20260906021112 82 303 1.0 3.0 0.00 0.00 0.00 30 1017.7
20260906020609 83 299 2.0 3.0 0.00 0.00 0.00 29 1017.8
20260906020106 83 304 2.0 3.0 0.00 0.00 0.00 29 1017.7
20260906015609 83 304 2.0 3.0 0.00 0.00 0.00 29 1017.6
20260906015107 84 319 2.0 3.0 0.00 0.00 0.00 29 1017.5
20260906014608 84 298 2.0 3.0 0.00 0.00 0.00 28 1017.6
20260906014107 85 299 2.0 4.0 0.00 0.00 0.00 28 1017.5
20260906013604 85 298 2.0 4.0 0.00 0.00 0.00 27 1017.5
20260906013058 86 305 0.0 2.0 0.00 0.00 0.00 28 1017.5
20260906012547 87 313 1.0 3.0 0.00 0.00 0.00 26 1017.5
20260906012048 87 306 1.0 4.0 0.00 0.00 0.00 26 1017.5
20260906011548 88 295 2.0 5.0 0.00 0.00 0.00 25 1017.4
20260906011048 88 304 2.0 5.0 0.00 0.00 0.00 25 1017.4
20260906010548 89 289 2.0 5.0 0.00 0.00 0.00 25 1017.5
20260906010048 89 300 2.0 6.0 0.00 0.00 0.00 25 1017.5
20260906005548 89 292 4.0 7.0 0.00 0.00 0.00 24 1017.5
20260906005048 89 299 2.0 7.0 0.00 0.00 0.00 24 1017.5
20260906004544 89 5 4.0 6.0 0.00 0.00 0.00 24 1017.6
20260906004529 89 1 3.0 7.0 0.00 0.00 0.00 24 1017.6
20260906003543 89 292 4.0 7.0 0.00 0.00 0.00 24 1017.6
20260906003044 90 328 3.0 8.0 0.00 0.00 0.00 25 1017.6
20260906002801 89 318 4.0 8.0 0.00 0.00 0.00 25 1017.6
20260906002044 89 296 4.0 8.0 0.00 0.00 0.00 24 1017.6
20260906001545 89 343 4.0 8.0 0.00 0.00 0.00 25 1017.7
20260906001040 90 275 4.0 11.0 0.00 0.00 0.00 24 1017.7
20260906000535 89 283 6.0 12.0 0.00 0.00 0.00 24 1017.6
20260906000034 89 314 6.0 12.0 0.00 0.00 0.00 24 1017.5
20260905235535 90 314 5.0 10.0 0.00 0.00 0.00 24 1017.6
20260905235253 90 300 6.0 10.0 0.00 0.00 0.00 24 1017.6
20260905234535 90 315 5.0 9.0 0.00 0.00 0.00 24 1017.5
20260905234036 90 324 6.0 9.0 0.00 0.00 0.00 23 1017.5
20260905233531 91 294 6.0 9.0 0.00 0.00 0.00 23 1017.5
20260905233031 91 285 4.0 6.0 0.00 0.00 0.00 23 1017.5
20260905232531 91 35 3.0 6.0 0.00 0.00 0.00 23 1017.5
20260905232031 91 340 2.0 7.0 0.00 0.00 0.00 23 1017.5